Aghushkash, Iran

4:58 PM +0430 on March 24, 2019 (GMT +0430)
Aghushkash

Weather History for 40893 - July, 2015

Change the Weather History Date:

Friday, July 31, 2015

  Actual Average Record
Temperature  
Mean Temperature 96 °F -  
Max Temperature 104 °F - - ()
Min Temperature 89 °F - - ()
Cooling Degree Days 32    
Growing Degree Days 46 (Base 50)    
Moisture  
Dew Point 85 °F    
Average Humidity 77    
Maximum Humidity 84    
Minimum Humidity 64    
Precipitation  
Precipitation 0.00 in - - ()
Sea Level Pressure  
Sea Level Pressure 29.46 in    
Wind  
Wind Speed 9 mph ()    
Max Wind Speed 20 mph    
Max Gust Speed -    
Visibility 2.9 miles    
Events      
T = Trace of Precipitation, MM = Missing Value Source: Averaged Metar Reports

Daily Weather History Graph

Daily Weather History Graph

Search for Another Location

Airport or City:

Astronomy

Jul. 31, 2015 Rise Set
Actual Time 6:03 AM +0430 7:27 PM +0430
Civil Twilight 5:37 AM +0430 7:52 PM +0430
Nautical Twilight 5:08 AM +0430 8:22 PM +0430
Astronomical Twilight 4:37 AM +0430 8:53 PM +0430
Moon 7:19 PM +0430 (7/31) 5:46 AM +0430 (7/31)
Length of Visible Light 14h 14m
Length of Day
13h 24m
Full, 100% of the Moon is Illuminated
Jul 31
Full
Jul 31
Full
Aug 7
Last Quarter
Aug 14
New
Aug 23
First Quarter

Hourly Weather History & Observations

Time (+0430) Temp. Heat Index Dew Point Humidity Pressure Visibility Wind Dir Wind Speed Gust Speed Precip Events Conditions
1:30 AM 90 °F - 84 °F 77% 29.48 in 3 mi West 8.9 mph - -   Mist
1:30 AM 89.6 °F 115.0 °F 84.2 °F 84% 29.44 in 3.1 mi West 9.2 mph - N/A   Scattered Clouds
4:30 AM 90 °F - 84 °F 78% 29.47 in 3 mi NW 8.9 mph - -   Mist
4:30 AM 89.6 °F 115.0 °F 84.2 °F 84% 29.44 in 3.1 mi NW 9.2 mph - N/A   Mist
6:30 AM 89.6 °F 115.0 °F 84.2 °F 84% 29.44 in 3.1 mi SW 2.3 mph - N/A   Mist
7:30 AM 89 °F - 83 °F 80% 29.47 in 3 mi East 2.2 mph - -   Mist
7:30 AM 89.6 °F 115.0 °F 84.2 °F 84% 29.44 in 3.1 mi East 2.3 mph - N/A   Mist
8:30 AM 91.4 °F 117.8 °F 84.2 °F 79% 29.47 in 3.1 mi ENE 6.9 mph - N/A   Mist
9:30 AM 91.4 °F 122.4 °F 86.0 °F 84% 29.47 in 3.1 mi SE 11.5 mph - N/A   Mist
10:30 AM 92 °F - 85 °F 75% 29.51 in 3 mi ESE 13.4 mph - -   Mist
10:30 AM 91.4 °F 117.8 °F 84.2 °F 79% 29.50 in 3.1 mi ESE 13.8 mph - N/A   Mist
11:30 AM 93.2 °F 124.9 °F 86.0 °F 79% 29.50 in 3.1 mi ESE 16.1 mph - N/A   Mist
12:30 PM 93.2 °F 124.9 °F 86.0 °F 79% 29.47 in 3.1 mi SE 13.8 mph - N/A   Mist
1:30 PM 93 °F - 87 °F 77% 29.49 in 4 mi SSE 13.4 mph - -   Mist
1:30 PM 93.2 °F 124.9 °F 86.0 °F 79% 29.47 in 3.7 mi SSE 13.8 mph - N/A   Unknown
2:30 PM 93.2 °F 124.9 °F 86.0 °F 79% 29.44 in 3.7 mi South 11.5 mph - N/A   Unknown
3:20 PM 93.2 °F 124.9 °F 86.0 °F 79% 29.44 in 3.7 mi South 11.5 mph - N/A   Unknown
3:30 PM 93.2 °F 124.9 °F 86.0 °F 79% 29.44 in 3.7 mi South 11.5 mph - N/A   Unknown
4:20 PM 93.2 °F 124.9 °F 86.0 °F 79% 29.42 in 3.1 mi South 9.2 mph - N/A   Partly Cloudy
4:30 PM 93 °F - 86 °F 76% 29.45 in 3 mi South 8.9 mph - -   Mist
4:30 PM 93.2 °F 124.9 °F 86.0 °F 79% 29.42 in 3.1 mi South 9.2 mph - N/A   Partly Cloudy
5:30 PM 98.6 °F 143.6 °F 89.6 °F 75% 29.44 in 1.6 mi SE 6.9 mph - N/A   Haze
6:30 PM 102.2 °F 154.4 °F 91.4 °F 71% 29.42 in 1.9 mi SE 6.9 mph - N/A   Haze
7:30 PM 94 °F - 83 °F 64% 29.43 in 2 mi South 11.2 mph - -   Haze
7:30 PM 93.2 °F 117.1 °F 82.4 °F 71% 29.42 in 1.9 mi South 11.5 mph - N/A   Haze
8:30 PM 93.2 °F 117.1 °F 82.4 °F 71% 29.42 in 1.9 mi SW 16.1 mph - N/A   Haze
9:20 PM 91.4 °F 114.3 °F 82.4 °F 75% 29.44 in 2.5 mi WSW 19.6 mph - N/A   Haze
9:30 PM 91.4 °F 114.3 °F 82.4 °F 75% 29.44 in 2.5 mi WSW 19.6 mph - N/A   Haze
10:30 PM 92 °F - 83 °F 70% 29.50 in 2 mi WSW 11.2 mph - -   Haze
10:30 PM 91.4 °F 117.8 °F 84.2 °F 79% 29.47 in 2.5 mi WSW 11.5 mph - N/A   Haze